Disclaimer

Please do not use the information listed here in-flight or in-navigation, as they are not provided to us by the airports but are provided by volunteers, so they might be outdated.

Search


Regions


Airport information page

Radio informations:
Tower (TWR) - 122.1 MHz
FARNBOROUGH LARS - 125.25 MHz
Ground (GND) - 241.025 MHz
Automatic Terminal Information Service (ATIS) - 379.375 MHz
Approach (APP) - 131.3 MHz

Airport informations:
Latitude: 51° 14' 02.90" N
Longitude: 000° 56' 34.17" W
Elevation: 405 feet - 123 meters
Operating hours: Remarks
Operating agency: Military
Timezone: UTC 0(+1DT) - Last Sunday in March to last Sunday in October
Fuel: N/A

Runway information:
10/28 - 6030 x 141 feet< - >1838 x 43 meters

Recent METARs:
EGVO 221850Z 25004KT 9999 SCT006 BKN014 02/01 Q0997 YLO1 BECMG FEW014 BLU
EGVO 221850Z 25004KT 9999 SCT006 BKN014 02/01 Q0997 YLO1 BECMG FEW014 BLU
EGVO 221950Z 27005KT 9999 FEW008 01/01 Q0997 BLU NOSIG

Airport on the map: